Change the Weather History Date:

Friday, January 16, 2015

  Actual Average Record
Temperature  
Mean Temperature 46 °F 43 °F  
Max Temperature 56 °F 53 °F 75 °F (2013)
Min Temperature 35 °F 33 °F 20 °F (2009)
Degree Days  
Heating Degree Days 19 22  
Month to date heating degree days 363 351  
Since 1 July heating degree days 1416 1401  
Cooling Degree Days 0 0  
Month to date cooling degree days 0 0  
Year to date cooling degree days 0 0  
Moisture  
Dew Point 37 °F    
Average Humidity 68    
Maximum Humidity 93    
Minimum Humidity 43    
Precipitation  
Precipitation 0.03 in 0.10 in 0.15 in (2005)
Month to date precipitation 2.43 1.37  
Year to date precipitation 2.43 1.37  
Sea Level Pressure  
Sea Level Pressure 30.10 in    
Wind  
Wind Speed 6 mph (WNW)    
Max Wind Speed 15 mph    
Max Gust Speed 19 mph    
Visibility 7 miles    
Events Rain    
T = Trace of Precipitation, MM = Missing Value Source: NWS Daily Summary

Daily Weather History Graph

Daily Weather History Graph

Search for Another Location

Airport or City:

Trip Planner

Search our weather history database for the weather conditions in past years. The results will help you decide how hot, cold, wet, or windy it might be!

Date:

Astronomy

Jan. 16, 2015 Rise Set
Actual Time 7:22 AM EST 5:29 PM EST
Civil Twilight 6:55 AM EST 5:56 PM EST
Nautical Twilight 6:24 AM EST 6:27 PM EST
Astronomical Twilight 5:54 AM EST 6:58 PM EST
Moon 3:18 AM EST (1/16) 2:02 PM EST (1/16)
Length of Visible Light 11h 01m
Length of Day
10h 06m
Waning Crescent, 19% of the Moon is Illuminated
Jan 16
Waning Crescent
Jan 20
New
Jan 26
First Quarter
Feb 3
Full
Feb 11
Last Quarter

Hourly Weather History & Observations

Time (EST) Temp. Windchill Dew Point Humidity Pressure Visibility Wind Dir Wind Speed Gust Speed Precip Events Conditions
12:16 AM 41.0 °F - 39.0 °F 93% 30.10 in 4.0 mi Calm Calm - 0.00 in Rain Light Rain
12:50 AM 41.0 °F 39.0 °F 39.2 °F 93% 30.09 in 4.0 mi WSW 3.5 mph - 0.01 in Rain Light Rain
12:54 AM 41.0 °F 38.0 °F 39.0 °F 93% 30.09 in 4.0 mi WSW 4.6 mph - 0.01 in Rain Light Rain
1:14 AM 41.0 °F 39.0 °F 39.0 °F 93% 30.08 in 4.0 mi WSW 3.5 mph - 0.00 in Rain Light Rain
1:54 AM 41.0 °F 39.0 °F 39.0 °F 93% 30.08 in 5.0 mi West 3.5 mph - 0.02 in   Overcast
2:54 AM 41.0 °F 39.0 °F 39.0 °F 93% 30.06 in 5.0 mi WNW 3.5 mph - N/A   Overcast
3:27 AM 41.0 °F 39.0 °F 39.0 °F 93% 30.05 in 4.0 mi West 3.5 mph - N/A   Overcast
3:54 AM 41.0 °F 37.1 °F 39.0 °F 93% 30.05 in 4.0 mi West 5.8 mph - N/A   Overcast
4:54 AM 41.0 °F 35.8 °F 37.9 °F 89% 30.05 in 4.0 mi NW 8.1 mph - N/A   Overcast
5:54 AM 39.9 °F 36.7 °F 37.9 °F 93% 30.06 in 4.0 mi West 4.6 mph - N/A   Overcast
6:38 AM 39.9 °F 35.1 °F 37.9 °F 93% 30.07 in 3.0 mi West 6.9 mph - N/A   Overcast
6:54 AM 39.9 °F 34.5 °F 37.9 °F 93% 30.08 in 3.0 mi West 8.1 mph - N/A   Overcast
7:23 AM 39.9 °F 34.5 °F 37.0 °F 89% 30.08 in 4.0 mi NW 8.1 mph - N/A   Overcast
7:39 AM 39.0 °F 33.4 °F 37.0 °F 93% 30.09 in 3.0 mi WNW 8.1 mph - N/A   Overcast
7:54 AM 39.0 °F 32.3 °F 37.0 °F 93% 30.09 in 3.0 mi WNW 10.4 mph - N/A   Mostly Cloudy
8:54 AM 41.0 °F 37.1 °F 37.0 °F 86% 30.12 in 4.0 mi WNW 5.8 mph - N/A   Scattered Clouds
9:54 AM 43.0 °F 37.7 °F 37.0 °F 80% 30.13 in 9.0 mi NW 9.2 mph - N/A   Clear
10:54 AM 46.0 °F 41.9 °F 37.0 °F 71% 30.14 in 10.0 mi WNW 8.1 mph - N/A   Clear
11:54 AM 48.9 °F - 37.0 °F 64% 30.11 in 10.0 mi NW 11.5 mph - N/A   Clear
12:54 PM 51.1 °F - 36.0 °F 56% 30.09 in 10.0 mi NW 6.9 mph - N/A   Clear
1:54 PM 54.0 °F - 34.0 °F 47% 30.07 in 10.0 mi NNW 11.5 mph - N/A   Clear
2:54 PM 55.0 °F - 33.1 °F 43% 30.07 in 10.0 mi NW 11.5 mph - N/A   Clear
3:54 PM 55.9 °F - 34.0 °F 44% 30.08 in 10.0 mi NNW 11.5 mph - N/A   Clear
4:54 PM 54.0 °F - 35.1 °F 49% 30.09 in 10.0 mi WNW 9.2 mph - N/A   Clear
5:54 PM 48.9 °F - 35.1 °F 59% 30.11 in 10.0 mi WNW 4.6 mph - N/A   Clear
6:54 PM 43.0 °F - 37.0 °F 80% 30.14 in 10.0 mi Calm Calm - N/A   Clear
7:54 PM 42.1 °F - 36.0 °F 79% 30.16 in 10.0 mi Calm Calm - N/A   Clear
8:54 PM 37.9 °F - 35.1 °F 89% 30.18 in 10.0 mi Calm Calm - N/A   Clear
9:54 PM 36.0 °F - 34.0 °F 93% 30.19 in 10.0 mi Calm Calm - N/A   Clear
10:54 PM 37.0 °F - 33.1 °F 86% 30.22 in 10.0 mi Calm Calm - N/A   Clear
11:54 PM 35.1 °F - 33.1 °F 92% 30.23 in 10.0 mi Calm Calm - N/A   Clear